When you browse on this site, cookies collect data to enhance your experience and personalize the content and advertising you see.
Visit our Privacy Policy to learn more. By continuing to use the site, you agree to this use of cookies and data.
  • In Switzerland
  • List of Countries
  • For 7 days
  • Water Temperature
  • Weather Map
  • Weather Widgets
  • user-avatar
    Login

    Hourly Weather Laatzen

    Today, 3 June, Wednesday

    Time Temperature Precipitation Wind Pressure Humidity
    00:00 +16°C° 0 mm 1 mps 752 mmHg 79%
    01:00 +15°C° 0 mm 2 mps 751 mmHg 80%
    02:00 +15°C° 0 mm 2 mps 751 mmHg 82%
    03:00 +15°C° 0 mm 1 mps 750 mmHg 83%
    04:00 +14°C° 0 mm 1 mps 749 mmHg 85%
    05:00 +15°C° 0 mm 1 mps 749 mmHg 82%
    06:00 +16°C° 0 mm 1 mps 749 mmHg 79%
    07:00 +19°C° 0 mm 1 mps 749 mmHg 76%
    08:00 +20°C° 0 mm 1 mps 748 mmHg 72%
    09:00 +22°C° 0 mm 1 mps 748 mmHg 68%
    10:00 +23°C° 0 mm 1 mps 748 mmHg 64%
    11:00 +23°C° 0.7 mm 1 mps 747 mmHg 62%
    12:00 +24°C° 0.7 mm 1 mps 747 mmHg 61%
    13:00 +24°C° 0.7 mm 1 mps 746 mmHg 60%
    14:00 +24°C° 0.8 mm 1 mps 746 mmHg 61%
    15:00 +24°C° 0.8 mm 1 mps 745 mmHg 63%
    16:00 +24°C° 0.8 mm 1 mps 745 mmHg 65%
    17:00 +23°C° 0.8 mm 1 mps 745 mmHg 70%
    18:00 +22°C° 0.8 mm 1 mps 744 mmHg 74%
    19:00 +21°C° 0.8 mm 1 mps 744 mmHg 79%
    20:00 +20°C° 0 mm 1 mps 744 mmHg 81%
    21:00 +18°C° 0 mm 1 mps 744 mmHg 84%
    22:00 +16°C° 0 mm 1 mps 744 mmHg 86%
    23:00 +16°C° 0 mm 1 mps 743 mmHg 87%

    Tomorrow, 4 June, Thursday

    Time Temperature Precipitation Wind Pressure Humidity
    00:00 +15°C° 0 mm 1 mps 743 mmHg 87%
    01:00 +15°C° 0 mm 1 mps 742 mmHg 88%
    02:00 +15°C° 0.1 mm 1 mps 742 mmHg 88%
    03:00 +15°C° 0.1 mm 1 mps 741 mmHg 89%
    04:00 +15°C° 0.1 mm 1 mps 741 mmHg 89%
    05:00 +15°C° 0.1 mm 1 mps 740 mmHg 89%
    06:00 +15°C° 0.1 mm 1 mps 740 mmHg 90%
    07:00 +16°C° 0.1 mm 2 mps 740 mmHg 90%
    08:00 +16°C° 0.8 mm 2 mps 740 mmHg 91%
    09:00 +15°C° 0.8 mm 2 mps 739 mmHg 92%
    10:00 +15°C° 0.8 mm 2 mps 739 mmHg 93%
    11:00 +15°C° 1.3 mm 2 mps 739 mmHg 93%
    12:00 +16°C° 1.3 mm 2 mps 739 mmHg 92%
    13:00 +16°C° 1.3 mm 2 mps 738 mmHg 91%
    14:00 +16°C° 0.6 mm 3 mps 738 mmHg 88%
    15:00 +17°C° 0.6 mm 4 mps 738 mmHg 85%
    16:00 +17°C° 0.6 mm 5 mps 738 mmHg 82%
    17:00 +15°C° 0.3 mm 5 mps 738 mmHg 83%
    18:00 +14°C° 0.3 mm 5 mps 738 mmHg 84%
    19:00 +13°C° 0.3 mm 6 mps 738 mmHg 85%
    20:00 +12°C° 0 mm 5 mps 739 mmHg 87%
    21:00 +10°C° 0 mm 4 mps 739 mmHg 89%
    22:00 +9°C° 0 mm 3 mps 740 mmHg 91%
    23:00 +9°C° 0 mm 3 mps 740 mmHg 91%

    Day after tomorrow, 5 June, Friday

    Time Temperature Precipitation Wind Pressure Humidity
    00:00 +7°C° 0 mm 4 mps 740 mmHg 92%
    01:00 +7°C° 0 mm 4 mps 741 mmHg 92%
    02:00 +6°C° 0 mm 4 mps 741 mmHg 92%
    03:00 +7°C° 0 mm 3 mps 741 mmHg 92%
    04:00 +5°C° 0 mm 3 mps 741 mmHg 91%
    05:00 +6°C° 0 mm 4 mps 741 mmHg 87%
    06:00 +7°C° 0 mm 4 mps 741 mmHg 83%
    07:00 +8°C° 0 mm 4 mps 741 mmHg 79%
    08:00 +10°C° 0.1 mm 5 mps 741 mmHg 73%
    09:00 +12°C° 0.1 mm 5 mps 741 mmHg 66%
    10:00 +13°C° 0.1 mm 5 mps 741 mmHg 59%
    11:00 +14°C° 0.1 mm 5 mps 740 mmHg 59%
    12:00 +15°C° 0.1 mm 5 mps 740 mmHg 59%
    13:00 +15°C° 0.1 mm 6 mps 740 mmHg 59%
    14:00 +14°C° 0.9 mm 6 mps 739 mmHg 68%
    15:00 +13°C° 0.9 mm 6 mps 739 mmHg 76%
    16:00 +11°C° 0.9 mm 7 mps 739 mmHg 85%
    17:00 +10°C° 0.5 mm 6 mps 739 mmHg 86%
    18:00 +10°C° 0.5 mm 6 mps 739 mmHg 87%
    19:00 +9°C° 0.5 mm 5 mps 739 mmHg 87%
    20:00 +8°C° 0 mm 5 mps 740 mmHg 89%
    21:00 +7°C° 0 mm 4 mps 740 mmHg 90%
    22:00 +7°C° 0 mm 3 mps 741 mmHg 91%
    23:00 +7°C° 0 mm 3 mps 741 mmHg 92%

    6 June, Saturday

    Time Temperature Precipitation Wind Pressure Humidity
    00:00 +7°C° 0 mm 3 mps 742 mmHg 92%
    01:00 +7°C° 0 mm 3 mps 742 mmHg 92%
    02:00 +5°C° 0 mm 3 mps 742 mmHg 92%
    03:00 +5°C° 0 mm 3 mps 742 mmHg 92%
    04:00 +5°C° 0 mm 4 mps 742 mmHg 93%
    05:00 +7°C° 0 mm 4 mps 742 mmHg 89%
    06:00 +8°C° 0 mm 5 mps 743 mmHg 85%
    07:00 +9°C° 0 mm 6 mps 743 mmHg 81%
    08:00 +10°C° 0.2 mm 6 mps 743 mmHg 77%
    09:00 +11°C° 0.2 mm 6 mps 743 mmHg 72%
    10:00 +12°C° 0.2 mm 7 mps 743 mmHg 67%
    11:00 +14°C° 0.5 mm 7 mps 743 mmHg 66%
    12:00 +14°C° 0.5 mm 7 mps 743 mmHg 65%
    13:00 +15°C° 0.5 mm 7 mps 743 mmHg 63%
    14:00 +15°C° 0.1 mm 7 mps 743 mmHg 61%
    15:00 +16°C° 0.1 mm 6 mps 743 mmHg 58%
    16:00 +16°C° 0.1 mm 6 mps 744 mmHg 55%
    17:00 +15°C° 0.1 mm 5 mps 744 mmHg 61%
    18:00 +15°C° 0.1 mm 4 mps 744 mmHg 67%
    19:00 +14°C° 0.1 mm 3 mps 744 mmHg 73%
    20:00 +12°C° 0 mm 3 mps 745 mmHg 77%
    21:00 +11°C° 0 mm 3 mps 745 mmHg 80%
    22:00 +9°C° 0 mm 3 mps 746 mmHg 84%
    23:00 +9°C° 0 mm 3 mps 746 mmHg 85%

    7 June, Sunday

    Time Temperature Precipitation Wind Pressure Humidity
    00:00 +8°C° 0 mm 3 mps 746 mmHg 86%
    01:00 +8°C° 0 mm 3 mps 746 mmHg 87%
    02:00 +7°C° 0 mm 2 mps 747 mmHg 87%
    03:00 +7°C° 0 mm 2 mps 747 mmHg 86%
    04:00 +6°C° 0 mm 2 mps 747 mmHg 86%
    05:00 +8°C° 0 mm 2 mps 747 mmHg 81%
    06:00 +9°C° 0 mm 2 mps 747 mmHg 76%
    07:00 +10°C° 0 mm 2 mps 748 mmHg 71%
    08:00 +13°C° 0 mm 2 mps 748 mmHg 66%
    09:00 +14°C° 0 mm 2 mps 748 mmHg 61%
    10:00 +16°C° 0 mm 3 mps 748 mmHg 56%
    11:00 +14°C° 0 mm 3 mps 748 mmHg 58%
    12:00 +14°C° 0 mm 4 mps 748 mmHg 60%
    13:00 +14°C° 0 mm 4 mps 748 mmHg 62%
    14:00 +12°C° 1 mm 3 mps 748 mmHg 70%
    15:00 +11°C° 1 mm 3 mps 749 mmHg 78%
    16:00 +9°C° 1 mm 2 mps 749 mmHg 86%
    17:00 +10°C° 0.1 mm 2 mps 749 mmHg 85%
    18:00 +10°C° 0.1 mm 2 mps 749 mmHg 84%
    19:00 +12°C° 0.1 mm 2 mps 750 mmHg 83%
    20:00 +10°C° 0 mm 2 mps 750 mmHg 85%
    21:00 +9°C° 0 mm 2 mps 750 mmHg 88%
    22:00 +8°C° 0 mm 2 mps 751 mmHg 90%
    23:00 +8°C° 0 mm 2 mps 751 mmHg 90%

    8 June, Monday

    Time Temperature Precipitation Wind Pressure Humidity
    00:00 +7°C° 0 mm 2 mps 751 mmHg 89%
    01:00 +7°C° 0 mm 2 mps 751 mmHg 89%
    02:00 +7°C° 0 mm 2 mps 751 mmHg 89%
    03:00 +7°C° 0 mm 2 mps 751 mmHg 89%
    04:00 +7°C° 0 mm 2 mps 751 mmHg 90%
    05:00 +8°C° 0 mm 3 mps 751 mmHg 86%
    06:00 +10°C° 0 mm 3 mps 751 mmHg 83%
    07:00 +11°C° 0 mm 3 mps 751 mmHg 80%
    08:00 +13°C° 0 mm 3 mps 751 mmHg 74%
    09:00 +16°C° 0 mm 3 mps 751 mmHg 67%
    10:00 +18°C° 0 mm 3 mps 751 mmHg 61%
    11:00 +18°C° 0.1 mm 4 mps 751 mmHg 59%
    12:00 +19°C° 0.1 mm 4 mps 751 mmHg 57%
    13:00 +20°C° 0.1 mm 4 mps 751 mmHg 55%
    14:00 +19°C° 0.5 mm 4 mps 751 mmHg 58%
    15:00 +19°C° 0.5 mm 4 mps 751 mmHg 61%
    16:00 +19°C° 0.5 mm 4 mps 750 mmHg 64%
    17:00 +18°C° 0.4 mm 3 mps 750 mmHg 69%
    18:00 +18°C° 0.4 mm 3 mps 750 mmHg 74%
    19:00 +17°C° 0.4 mm 2 mps 750 mmHg 78%
    20:00 +15°C° 0.1 mm 2 mps 751 mmHg 81%
    21:00 +14°C° 0.1 mm 2 mps 751 mmHg 84%
    22:00 +12°C° 0.1 mm 2 mps 752 mmHg 87%
    23:00 +11°C° 0 mm 3 mps 752 mmHg 88%
    Show more